Simultaneous Nadir Overpasses (SNOs) Predictions

Prediction of SNOs between AQUA and METOP-C Satellite Orbit:

Table of predicted SNOs for the next 14.0 days since TLE Epoch: 3/20/2021
Index Date (AQUA) Time (AQUA) Lat,Lon (AQUA) SZA (AQUA ) Date (METOP-C) Time (METOP-C) Lat,Lon (METOP-C) SZA (METOP-C ) Distance(km) Time Diff (sec)
1 03/20/2021 15:12:11 -73.60, 126.69 106.46 03/20/2021 15:10:58 -73.55, 126.27 106.48 14.64 73
2 03/20/2021 16:01:42 73.77, -66.03 73.71 03/20/2021 16:01:34 73.75, -65.94 73.69 3.53 8
3 03/20/2021 16:51:08 -73.81, 101.53 106.27 03/20/2021 16:52:14 -73.83, 101.58 106.26 2.61 66
4 03/23/2021 10:46:28 -73.68,-167.03 107.50 03/23/2021 10:45:18 -73.65,-167.09 107.51 3.18 70
5 03/23/2021 11:35:57 73.74, 0.47 72.56 03/23/2021 11:35:56 73.75, 0.48 72.58 1.69 1
6 03/23/2021 12:25:24 -73.83, 167.91 107.36 03/23/2021 12:26:36 -73.83, 167.99 107.37 2.43 72
7 03/26/2021 06:20:44 -73.70,-100.66 108.58 03/26/2021 06:19:39 -73.70,-100.56 108.57 3.24 65
8 03/26/2021 07:10:13 73.77, 66.83 71.48 03/26/2021 07:10:18 73.76, 66.90 71.47 2.43 5
9 03/26/2021 07:59:43 -74.01,-126.06 108.28 03/26/2021 08:00:54 -74.03,-125.12 108.30 28.99 71
10 03/29/2021 01:54:58 -73.69, -34.19 109.71 03/29/2021 01:54:00 -73.70, -34.15 109.68 2.43 58
11 03/29/2021 02:44:27 73.75, 133.30 70.36 03/29/2021 02:44:39 73.76, 133.32 70.36 1.15 12
12 03/29/2021 03:34:02 -74.25, -60.18 109.13 03/29/2021 03:35:10 -74.27, -58.09 109.18 62.93 68
13 03/31/2021 21:29:13 -73.67, 32.28 110.82 03/31/2021 21:28:22 -73.70, 32.26 110.78 3.48 51
14 03/31/2021 22:18:42 73.74,-160.24 69.25 03/31/2021 22:19:01 73.76,-160.27 69.27 2.47 19



Historial Predications of SNOs between AQUA and METOP-C
